Dewpoint
11 6 4 3 4 4 4 5 6 7 8 9 13 13 13 12 10 10 9 7 6 3 0 -1 -0 -0 1 4 3 5 7 8 10 10 10 9 8 9 9 8 5 2 4
10 7 5 6 6 7 9 9 9 11 13 14 14 12 11 10 8 5 3 0 -4 -7 -11 -13 -14 -13 -12 -10 -7 -5 -3 4 9 11 10 11 10 9 9 9 9 9 8
11 8 5 7 8 10 12 12 14 14 13 13 12 11 8 3 -2 -6 -10 -14 -17 -17 -15 -15 -14 -14 -14 -14 -13 -13 -12 -7 5 10 11 11 10 10 9 9 9 7 9
12 7 6 8 11 13 13 13 12 12 12 12 8 4 -1 -8 -15 -18 -18 -16 -16 -16 -15 -15 -15 -15 -15 -14 -14 -14 -13 -12 -4 10 11 10 10 9 7 7 6 8 11
12 6 7 9 12 12 12 11 11 10 9 5 -1 -7 -15 -18 -17 -16 -17 -16 -15 -15 -14 -14 -14 -14 -15 -15 -14 -8 -2 -3 -6 0 7 11 10 7 5 5 4 5 7
10 11 10 9 11 12 11 11 10 7 2 -4 -12 -18 -17 -16 -16 -16 -16 -15 -14 -14 -14 -15 -17 -18 -18 -17 -10 6 7 8 5 -0 -1 4 6 6 4 9 9 8 8
9 13 12 12 11 10 11 11 7 1 -6 -14 -18 -17 -16 -16 -16 -15 -15 -14 -13 -15 -17 -19 -20 -21 -22 -18 -2 7 9 9 10 9 9 9 4 10 11 9 9 10 10
9 13 13 12 11 11 12 10 3 -6 -14 -17 -16 -16 -17 -15 -15 -15 -14 -13 -15 -18 -19 -21 -23 -24 -23 -11 5 8 9 10 9 9 10 9 10 10 8 9 10 9 10
11 14 14 12 12 12 13 8 -1 -12 -17 -16 -16 -16 -15 -15 -14 -13 -13 -15 -18 -20 -22 -23 -23 -23 -19 1 8 8 7 9 8 8 9 9 9 9 9 9 10 10 10
13 14 14 13 13 11 12 6 -6 -15 -16 -15 -15 -14 -14 -13 -13 -13 -15 -18 -20 -21 -20 -19 -19 -16 -4 4 6 7 4 2 3 4 8 9 9 9 10 9 9 8 9
13 14 14 13 13 12 11 4 -11 -15 -14 -15 -14 -14 -13 -12 -12 -14 -18 -20 -19 -17 -15 -13 -10 -6 -1 2 2 1 1 -1 -6 -3 7 9 8 9 9 6 6 7 8
13 13 14 13 14 13 10 -1 -13 -13 -13 -13 -13 -14 -12 -11 -13 -16 -19 -18 -14 -13 -12 -10 -6 -1 1 2 3 1 -2 -4 -12 -4 5 8 8 7 8 8 8 7 8
13 14 13 14 13 13 9 -5 -13 -12 -12 -12 -11 -11 -12 -11 -13 -17 -17 -14 -12 -10 -9 -9 -4 -2 2 2 1 -0 -4 -4 -9 -8 2 3 -2 -2 1 -3 4 -0 6
14 14 14 13 13 12 8 -8 -12 -11 -10 -8 -9 -9 -10 -10 -13 -16 -13 -11 -11 -9 -8 -7 -5 -2 1 1 -1 -2 -5 -6 -7 -11 -10 -9 -10 -12 -13 -12 -11 -10 -11
14 14 13 12 12 11 3 -8 -10 -10 -8 -7 -8 -8 -9 -10 -14 -16 -12 -9 -9 -9 -6 -6 -4 -4 -2 -1 -2 -3 -5 -6 -6 -7 -9 -9 -10 -10 -10 -10 -10 -9 -9
14 13 12 12 11 10 5 -6 -10 -11 -10 -8 -8 -8 -8 -9 -14 -14 -11 -10 -8 -8 -7 -6 -4 -3 -3 -1 -2 -3 -3 -5 -6 -6 -6 -7 -7 -7 -7 -7 -7 -7 -7
13 13 12 12 11 9 5 -4 -9 -10 -10 -11 -10 -9 -9 -9 -14 -15 -11 -10 -8 -9 -8 -7 -6 -5 -3 -2 -2 -3 -4 -4 -6 -5 -5 -5 -6 -6 -6 -6 -6 -6 -6
13 12 12 10 12 7 3 -4 -9 -10 -11 -11 -11 -10 -9 -10 -15 -14 -11 -9 -9 -9 -9 -8 -8 -7 -6 -5 -3 -2 -2 -3 -4 -4 -5 -5 -5 -5 -5 -5 -6 -6 -6
13 13 11 8 10 8 1 -5 -8 -9 -11 -11 -10 -10 -9 -11 -15 -14 -11 -9 -9 -9 -8 -9 -8 -8 -7 -7 -5 -4 -4 -3 -3 -2 -4 -3 -4 -4 -5 -5 -5 -5 -5
13 13 11 11 9 9 4 -3 -6 -9 -10 -10 -10 -10 -9 -11 -14 -13 -10 -9 -9 -8 -9 -8 -8 -8 -8 -8 -7 -7 -5 -3 -3 -2 -2 -2 -3 -2 -2 -5 -5 -5 -5
12 12 12 11 11 11 10 -1 -4 -8 -10 -8 -7 -9 -9 -10 -14 -12 -10 -9 -8 -9 -8 -8 -8 -9 -9 -9 -8 -6 -5 -2 -2 -1 -2 -2 -2 -2 -3 -3 -4 -4 -5
11 12 11 11 11 10 7 8 -1 -4 -6 -6 -7 -6 -7 -9 -12 -12 -9 -9 -9 -8 -8 -8 -8 -9 -9 -9 -9 -8 -2 -2 -2 -1 -1 -1 -2 -3 -3 -3 -3 -3 -3
11 11 11 11 9 10 7 5 2 -1 -1 -3 -5 -6 -6 -7 -10 -10 -9 -8 -8 -7 -7 -8 -8 -9 -9 -8 -8 -8 -4 -1 -1 -2 -0 -1 -1 -1 -1 -1 -2 -3 -3
9 11 10 10 9 8 5 4 2 0 -0 -3 -4 -4 -5 -6 -8 -9 -8 -7 -7 -7 -7 -7 -8 -8 -8 -8 -7 -6 -6 -6 -5 -4 -1 -1 -1 -0 -1 -1 -1 -1 -2
9 10 10 10 9 8 8 5 5 4 2 2 -0 -2 -4 -4 -5 -6 -7 -6 -7 -6 -6 -7 -7 -7 -8 -8 -7 -6 -5 -5 -4 -4 -4 -3 -1 -2 -1 -0 -0 -1 -1
9 10 10 9 9 8 7 9 5 4 2 3 3 1 -1 -1 -2 -5 -5 -5 -5 -5 -6 -6 -6 -7 -7 -7 -7 -7 -6 -5 -3 -1 -2 -1 -2 -3 -4 -3 -1 -1 -1
Wind_Speed
26 24 23 22 21 20 19 18 17 15 14 13 14 14 12 9 8 7 5 4 2 1 1 2 2 2 1 1 2 3 5 7 8 9 10 11 11 11 9 9 11 9 8
31 27 26 23 22 20 19 17 15 14 15 15 12 9 7 5 3 1 0 0 0 0 1 1 2 2 2 2 3 3 3 5 8 10 12 10 9 9 8 7 7 8 8
30 30 27 25 23 21 18 16 16 16 15 11 7 5 2 1 1 1 1 1 2 2 3 3 4 4 4 4 4 3 3 4 7 10 9 7 6 6 7 6 7 6 6
31 31 28 26 23 21 20 18 15 13 11 7 4 3 2 2 3 3 3 3 4 4 4 4 4 4 5 6 7 7 7 7 8 8 9 5 5 3 4 4 4 5 6
32 31 29 26 23 22 19 16 14 11 9 6 5 4 3 4 5 5 5 5 4 5 4 4 4 5 6 7 9 11 11 11 9 7 5 5 4 4 5 5 4 4 5
35 32 29 26 24 21 18 15 13 10 8 7 6 6 6 6 6 6 5 5 5 5 5 5 5 6 7 8 12 14 13 15 12 11 7 5 2 6 7 7 6 5 3
34 31 29 25 23 20 17 14 12 10 9 7 7 8 8 8 7 6 6 5 5 5 5 6 6 7 9 12 16 15 14 13 14 10 12 11 9 9 8 6 6 6 6
33 32 29 25 22 20 16 14 11 10 9 9 9 9 8 8 8 7 6 6 6 6 7 7 8 9 12 17 19 14 14 13 8 8 10 11 9 7 4 3 3 2 4
30 33 29 26 23 20 17 14 12 10 9 10 9 9 8 8 8 7 6 6 7 8 9 10 11 12 15 20 19 10 11 11 6 6 6 8 7 7 7 5 5 5 5
28 31 30 28 24 21 19 15 13 11 11 10 9 9 8 8 8 8 7 8 9 10 11 12 14 18 20 18 16 11 5 4 4 3 10 8 8 5 5 2 2 4 5
27 30 30 28 24 22 19 16 14 13 12 11 10 10 9 8 8 8 8 9 10 11 12 14 16 19 18 15 11 7 5 6 5 8 13 12 11 11 10 5 3 6 6
33 31 30 28 25 22 19 16 15 14 13 12 11 9 10 9 9 8 9 11 11 12 12 12 14 15 14 12 9 5 7 8 8 9 11 12 8 4 5 4 5 4 7
34 34 31 28 25 21 19 17 16 15 15 13 10 9 8 8 8 9 9 11 11 11 12 13 13 13 11 10 8 3 6 9 10 8 6 4 3 4 2 2 5 5 7
34 34 32 28 23 21 19 17 17 16 15 14 12 9 8 8 7 9 10 10 11 12 12 13 13 12 10 8 7 5 5 8 8 8 5 3 5 5 6 7 8 9 9
36 35 32 28 24 22 22 19 17 16 15 13 12 11 9 9 8 8 9 9 10 11 11 12 11 11 9 7 6 6 4 7 7 7 7 6 6 7 7 8 8 8 9
39 34 31 28 24 22 20 19 17 16 15 15 14 12 10 9 8 9 9 10 10 10 10 10 9 9 8 6 5 4 5 5 5 5 5 5 5 6 6 7 7 8 9
37 36 33 30 25 23 20 17 16 16 15 15 14 12 11 10 10 10 10 10 10 10 10 9 8 7 6 5 4 2 3 3 4 3 3 3 4 5 5 6 6 7 8
32 35 36 29 24 23 20 17 17 16 15 15 14 12 11 10 10 9 9 9 9 9 9 8 8 7 6 4 3 1 0 1 3 4 3 2 3 5 4 5 5 6 7
34 36 35 27 29 23 19 17 15 15 15 15 15 14 13 11 10 9 9 9 9 8 8 7 7 5 4 3 2 2 2 3 4 3 5 4 5 6 5 5 5 6 7
26 32 34 28 30 22 19 18 17 16 16 15 15 14 13 12 11 10 10 9 9 8 8 7 6 5 3 2 2 3 2 4 4 4 5 5 6 8 7 7 6 8 8
31 30 32 26 17 20 21 21 19 19 18 16 15 14 14 13 12 11 10 10 9 8 7 6 5 4 3 2 2 3 4 4 3 3 4 6 8 8 9 9 10 10 9
24 33 31 31 30 26 24 23 18 17 17 15 14 13 13 13 11 11 10 10 9 8 7 6 5 4 3 2 2 3 2 6 5 4 4 4 7 9 10 11 11 12 11
22 28 30 29 29 24 9 12 15 19 19 17 17 14 14 13 11 11 11 11 10 8 8 7 5 5 5 4 3 3 3 4 4 6 6 6 7 7 8 11 12 13 14
24 23 25 25 28 26 25 15 17 21 17 17 15 14 15 12 11 11 11 10 9 10 9 8 7 7 6 6 5 5 6 7 4 3 8 8 9 7 9 10 12 14 16
24 25 26 30 29 28 26 22 18 16 12 13 13 13 14 12 11 11 11 11 11 11 11 10 9 8 7 7 8 7 7 7 8 9 9 8 8 10 11 13 14 13 17
22 22 25 30 29 33 29 26 33 21 15 8 9 10 11 11 10 10 11 12 13 13 13 12 10 9 9 9 9 10 10 9 8 10 12 14 14 15 14 16 16 15 13
Wind_Direction
177 170 161 153 145 141 136 133 132 129 126 122 120 125 128 119 107 108 109 113 117 66 339 314 308 324 23 44 66 76 71 72 75 73 66 63 59 53 51 52 54 55 53
164 171 162 154 148 143 137 134 131 129 126 133 133 131 123 113 110 111 143 222 206 78 71 36 21 13 9 12 14 22 53 78 79 81 71 55 34 34 35 43 49 45 43
163 168 161 155 150 145 142 138 138 143 145 142 139 136 142 135 111 89 79 58 66 68 63 56 41 36 45 43 42 47 62 90 109 97 86 70 46 5 5 25 40 25 23
166 166 159 157 151 154 153 151 152 156 157 162 180 193 180 153 135 121 109 91 76 65 59 59 59 49 54 64 69 72 80 98 127 134 110 100 112 358 354 344 9 6 15
170 165 160 158 159 160 161 160 162 161 170 178 177 176 160 138 129 118 108 99 88 79 69 63 67 71 73 78 85 87 89 91 109 150 173 175 225 331 16 27 6 357 353
169 164 160 161 165 164 163 165 166 169 171 170 168 159 147 135 126 117 106 92 84 77 74 73 75 84 88 94 99 96 90 85 92 98 89 81 90 44 40 53 46 41 30
167 164 163 165 168 169 168 166 171 170 167 165 157 150 142 133 128 120 107 97 86 78 74 71 71 80 95 108 111 111 98 95 84 79 83 79 78 76 80 69 66 70 65
168 167 166 170 170 168 165 169 171 167 164 157 150 145 140 134 127 117 109 102 94 89 84 81 81 89 102 117 119 126 125 121 125 92 109 94 90 79 59 35 60 48 43
174 169 170 170 173 171 171 173 169 164 159 154 147 142 138 131 124 115 110 105 102 98 97 93 93 97 108 121 124 132 141 145 148 121 127 118 95 79 81 77 52 36 37
174 175 172 173 174 177 173 175 169 162 156 152 147 141 135 131 126 115 114 107 102 100 99 99 99 104 113 128 144 163 163 123 102 112 94 94 89 90 94 90 3 2 17
177 181 177 176 176 175 177 174 168 161 157 154 154 150 140 133 122 117 116 114 111 109 107 107 106 108 116 123 130 133 96 69 69 111 91 75 76 81 76 61 41 34 44
178 182 183 181 180 179 179 175 169 162 157 156 159 153 140 129 119 124 125 123 118 117 114 111 115 113 112 109 109 100 83 76 82 119 123 126 110 108 103 105 83 26 22
182 180 186 183 187 182 182 175 170 165 160 160 160 149 144 134 134 132 132 133 127 121 114 110 111 110 105 97 119 102 66 70 78 106 131 122 60 33 36 22 47 31 32
181 182 182 188 189 181 181 176 174 170 167 166 162 152 152 153 154 142 141 139 130 124 117 112 115 116 116 109 103 94 63 67 73 85 93 62 44 39 41 39 36 31 20
174 174 179 187 187 179 177 175 178 177 170 170 168 167 164 160 157 150 144 142 134 127 127 120 117 116 120 116 98 89 63 67 74 75 77 72 64 54 48 43 38 32 25
173 168 174 183 187 181 180 181 182 185 180 176 179 176 172 168 167 160 152 151 146 139 133 129 123 122 119 112 104 90 75 55 67 72 71 65 60 53 46 42 37 30 23
175 187 186 190 189 182 184 184 188 190 188 185 186 185 177 175 179 173 164 159 155 149 141 139 135 129 129 124 108 72 52 23 25 49 51 59 51 35 32 32 26 24 19
187 183 185 181 189 182 183 190 192 190 192 187 188 189 182 181 186 181 171 167 162 157 151 144 137 139 147 143 144 116 205 343 347 341 2 13 20 18 10 11 11 11 10
213 213 198 186 180 180 182 190 197 197 193 191 189 188 184 186 190 185 177 175 172 165 160 155 152 147 141 158 199 253 297 309 312 310 318 342 351 344 349 342 347 352 356
226 221 205 195 178 177 182 191 196 202 195 193 194 191 189 190 191 185 182 183 182 178 173 167 161 166 162 169 221 236 257 290 279 292 297 315 327 329 342 332 333 337 342
220 223 213 189 204 198 197 196 196 199 202 196 194 192 194 195 191 189 190 192 192 187 185 182 182 183 186 201 223 239 242 227 261 286 282 307 321 322 329 330 327 328 330
230 213 203 194 189 194 197 206 201 209 207 204 200 199 200 200 195 193 196 201 200 200 203 203 208 218 225 228 242 263 229 248 235 250 269 293 313 317 324 323 321 319 324
222 216 217 199 193 199 201 204 199 208 210 205 202 206 211 207 202 203 205 205 207 212 220 226 235 248 254 254 261 249 235 245 240 256 236 274 290 305 319 323 322 322 319
223 224 218 212 191 184 179 203 206 215 213 217 214 206 216 216 213 215 217 215 217 225 233 238 245 253 266 270 265 263 252 258 273 261 251 243 266 280 302 305 310 314 313
218 223 214 206 201 200 212 189 200 213 218 241 229 219 218 223 221 225 227 232 230 234 243 247 254 262 266 270 275 270 267 271 266 260 268 257 260 284 286 294 298 303 307
215 217 214 207 206 212 211 217 205 208 219 228 240 227 223 223 231 233 236 241 243 244 245 249 257 264 272 273 271 274 276 274 268 261 269 278 283 288 286 290 289 291 296
Height
1515 1519 1523 1526 1528 1530 1532 1534 1536 1538 1540 1541 1542 1543 1543 1544 1544 1545 1545 1545 1546 1546 1546 1546 1546 1546 1545 1546 1546 1546 1546 1546 1547 1547 1547 1547 1547 1548 1547 1547 1547 1547 1546
1510 1517 1522 1525 1528 1530 1532 1534 1536 1538 1540 1541 1542 1542 1543 1544 1544 1544 1545 1544 1544 1544 1544 1544 1544 1544 1545 1545 1545 1545 1545 1546 1546 1547 1547 1547 1547 1548 1548 1547 1547 1548 1548
1510 1515 1520 1524 1527 1530 1532 1534 1536 1538 1539 1541 1542 1543 1543 1543 1543 1544 1544 1544 1544 1544 1544 1543 1543 1543 1543 1544 1544 1544 1544 1545 1546 1547 1547 1548 1548 1548 1548 1548 1548 1548 1548
1510 1515 1519 1523 1526 1529 1532 1534 1536 1538 1539 1541 1541 1542 1542 1543 1543 1543 1543 1544 1544 1544 1544 1543 1543 1543 1543 1543 1543 1544 1544 1544 1545 1546 1546 1548 1548 1548 1548 1548 1548 1548 1548
1510 1515 1518 1522 1526 1528 1531 1534 1536 1537 1539 1540 1541 1541 1542 1542 1542 1543 1543 1543 1544 1544 1544 1544 1543 1543 1543 1544 1544 1544 1543 1544 1545 1545 1546 1547 1548 1548 1548 1548 1548 1548 1548
1509 1515 1518 1521 1525 1528 1530 1533 1536 1537 1538 1539 1540 1540 1541 1542 1542 1542 1543 1543 1543 1543 1543 1543 1543 1543 1544 1544 1545 1544 1544 1544 1544 1545 1546 1547 1548 1548 1548 1548 1548 1548 1548
1509 1514 1518 1521 1524 1527 1530 1533 1535 1536 1538 1539 1539 1540 1541 1541 1542 1542 1542 1543 1543 1543 1543 1543 1543 1543 1543 1545 1545 1545 1546 1546 1546 1547 1547 1548 1548 1549 1549 1549 1549 1549 1548
1508 1513 1517 1520 1524 1527 1530 1533 1534 1536 1537 1538 1539 1540 1541 1541 1542 1542 1542 1543 1543 1543 1543 1543 1543 1544 1544 1545 1546 1545 1546 1547 1547 1548 1548 1548 1549 1549 1550 1549 1549 1548 1548
1508 1512 1516 1519 1523 1526 1529 1532 1534 1536 1537 1539 1539 1540 1541 1541 1542 1542 1543 1543 1543 1543 1543 1543 1544 1544 1545 1546 1547 1545 1546 1547 1547 1548 1549 1549 1550 1550 1550 1550 1549 1548 1548
1508 1512 1515 1519 1522 1525 1528 1531 1533 1535 1537 1538 1540 1540 1541 1542 1542 1542 1543 1543 1543 1543 1544 1544 1544 1545 1547 1547 1547 1546 1547 1548 1548 1547 1548 1549 1550 1550 1550 1550 1549 1548 1548
1507 1511 1515 1518 1521 1524 1527 1530 1533 1535 1537 1538 1539 1540 1541 1542 1542 1542 1543 1543 1544 1544 1544 1545 1545 1547 1548 1549 1548 1547 1548 1547 1547 1548 1549 1550 1550 1551 1550 1549 1549 1549 1548
1503 1508 1513 1517 1519 1523 1527 1530 1532 1534 1536 1538 1539 1540 1541 1542 1543 1543 1544 1544 1544 1544 1545 1546 1546 1547 1548 1549 1549 1548 1549 1549 1548 1549 1549 1550 1550 1550 1551 1550 1549 1548 1547
1501 1505 1510 1515 1518 1523 1526 1529 1532 1534 1536 1537 1539 1540 1541 1542 1544 1544 1545 1545 1545 1546 1546 1546 1547 1548 1549 1550 1551 1549 1550 1550 1550 1550 1550 1551 1550 1550 1550 1549 1548 1547 1546
1499 1504 1507 1513 1518 1521 1525 1528 1530 1533 1535 1537 1538 1540 1541 1543 1544 1545 1545 1546 1545 1546 1547 1547 1548 1549 1550 1551 1551 1551 1551 1551 1551 1552 1552 1552 1551 1550 1550 1548 1548 1547 1546
1496 1502 1505 1511 1516 1518 1522 1525 1529 1531 1533 1536 1538 1540 1541 1542 1544 1545 1546 1547 1546 1546 1547 1548 1549 1549 1551 1551 1552 1552 1552 1552 1552 1552 1552 1552 1552 1551 1550 1549 1549 1548 1547
1493 1501 1504 1509 1512 1515 1519 1522 1526 1529 1531 1534 1536 1538 1540 1542 1543 1544 1545 1547 1547 1547 1548 1548 1550 1550 1551 1552 1552 1552 1552 1552 1552 1553 1553 1553 1552 1552 1551 1550 1550 1549 1548
1492 1499 1504 1507 1509 1512 1516 1521 1525 1527 1530 1532 1534 1536 1538 1541 1542 1543 1545 1546 1547 1547 1548 1548 1550 1551 1551 1552 1552 1552 1552 1552 1552 1552 1552 1552 1552 1552 1552 1551 1550 1549 1548
1494 1495 1500 1504 1512 1514 1515 1520 1524 1526 1530 1532 1533 1535 1537 1539 1541 1543 1544 1546 1547 1548 1548 1548 1550 1551 1552 1552 1552 1553 1552 1552 1552 1551 1552 1552 1552 1552 1552 1551 1550 1549 1548
1495 1497 1500 1499 1505 1512 1515 1520 1525 1527 1528 1531 1532 1534 1535 1537 1540 1542 1544 1546 1547 1548 1549 1549 1549 1551 1552 1552 1552 1552 1552 1552 1551 1551 1551 1551 1551 1552 1551 1550 1550 1549 1548
1494 1496 1498 1500 1495 1502 1511 1517 1524 1527 1529 1530 1532 1532 1534 1535 1538 1541 1542 1545 1547 1548 1548 1549 1549 1550 1551 1551 1552 1551 1551 1551 1551 1550 1550 1550 1550 1550 1549 1549 1549 1548 1547
1492 1494 1497 1501 1504 1505 1509 1516 1520 1524 1527 1529 1531 1532 1533 1535 1536 1539 1541 1544 1545 1547 1548 1548 1549 1549 1549 1549 1550 1550 1550 1549 1550 1549 1549 1548 1548 1549 1548 1548 1547 1546 1545
1490 1491 1495 1500 1503 1507 1512 1512 1519 1525 1529 1528 1528 1532 1532 1536 1535 1536 1540 1542 1544 1545 1546 1547 1547 1547 1548 1547 1548 1548 1548 1550 1548 1548 1548 1548 1547 1546 1546 1545 1546 1545 1544
1488 1489 1495 1496 1502 1501 1506 1518 1522 1526 1529 1526 1525 1528 1532 1535 1534 1536 1538 1541 1542 1543 1545 1546 1546 1546 1545 1546 1546 1547 1546 1547 1547 1546 1547 1546 1546 1545 1544 1544 1543 1541 1541
1485 1489 1492 1495 1498 1498 1506 1518 1519 1523 1525 1526 1527 1526 1531 1532 1533 1535 1538 1539 1540 1541 1543 1544 1544 1544 1544 1543 1544 1544 1544 1546 1546 1545 1545 1545 1544 1544 1543 1542 1541 1540 1538
1481 1485 1489 1492 1496 1500 1503 1504 1516 1523 1525 1530 1528 1526 1526 1529 1532 1534 1536 1537 1538 1538 1540 1542 1542 1541 1542 1542 1542 1542 1542 1542 1543 1544 1542 1542 1542 1541 1540 1540 1538 1538 1536
1479 1482 1486 1490 1493 1497 1500 1501 1510 1509 1520 1525 1527 1526 1527 1527 1530 1531 1533 1535 1536 1537 1538 1539 1539 1539 1539 1540 1540 1540 1539 1539 1540 1540 1539 1540 1538 1538 1537 1537 1536 1535 1534